Temperature
3 3 2 2 2 1 1 0 -1 -2 -1 -0 -0 1 1 1 1 1 1 1 0 0 -0 -0 -1 -1 -1 -1 -1 -1 -1 -2 -2 -2 -2 -2 -2 -2
3 2 2 2 1 1 0 -0 -1 -2 -3 -1 -1 -0 -0 -0 -0 -0 -0 -0 -1 -1 -1 -2 -2 -2 -2 -2 -2 -2 -2 -2 -2 -2 -2 -2 -2 -2
2 2 2 1 1 0 -0 -1 -1 -2 -3 -2 -2 -2 -2 -2 -1 -1 -1 -1 -1 -2 -2 -2 -2 -2 -2 -2 -2 -2 -2 -2 -3 -3 -3 -2 -2 -2
2 1 1 1 0 -0 -1 -1 -2 -2 -3 -3 -2 -3 -2 -2 -2 -2 -2 -3 -3 -2 -3 -3 -3 -3 -3 -3 -3 -3 -3 -3 -3 -3 -3 -3 -3 -3
1 0 0 -0 -0 -1 -1 -2 -2 -2 -3 -3 -3 -3 -4 -3 -3 -3 -3 -3 -3 -3 -4 -4 -4 -4 -4 -3 -3 -3 -3 -3 -3 -3 -3 -3 -3 -3
-0 -0 -1 -1 -1 -1 -2 -2 -2 -3 -3 -4 -4 -4 -5 -5 -5 -5 -4 -4 -4 -4 -4 -5 -5 -5 -4 -4 -4 -4 -4 -4 -4 -4 -4 -4 -4 -4
-1 -1 -1 -1 -2 -2 -2 -2 -3 -3 -4 -4 -4 -5 -5 -5 -5 -5 -5 -5 -5 -5 -5 -5 -5 -5 -5 -5 -4 -4 -4 -4 -4 -4 -4 -4 -4 -5
-2 -2 -2 -2 -2 -2 -3 -3 -3 -3 -3 -4 -4 -5 -5 -5 -5 -5 -6 -6 -7 -6 -6 -6 -6 -6 -5 -5 -5 -5 -5 -5 -5 -4 -4 -5 -5 -5
-3 -3 -3 -3 -3 -3 -3 -3 -3 -3 -3 -3 -4 -4 -4 -4 -5 -5 -6 -6 -6 -6 -6 -6 -6 -6 -5 -5 -5 -5 -5 -5 -5 -5 -5 -5 -5 -6
-3 -3 -3 -3 -3 -3 -3 -4 -3 -3 -3 -3 -3 -3 -4 -4 -4 -4 -5 -5 -6 -6 -7 -7 -6 -6 -6 -6 -5 -6 -6 -5 -5 -5 -6 -6 -6 -6
-4 -4 -4 -4 -3 -4 -4 -4 -4 -4 -4 -4 -4 -4 -4 -4 -4 -5 -6 -7 -7 -7 -7 -7 -7 -6 -6 -6 -6 -6 -6 -6 -6 -6 -6 -6 -6 -7
-4 -4 -4 -4 -4 -4 -4 -4 -4 -4 -4 -4 -4 -4 -4 -4 -5 -5 -5 -6 -7 -7 -7 -7 -7 -7 -7 -6 -6 -6 -6 -6 -6 -6 -6 -6 -7 -7
-4 -4 -4 -4 -4 -4 -4 -4 -4 -4 -4 -4 -4 -5 -5 -5 -5 -5 -5 -6 -7 -7 -6 -7 -7 -7 -7 -7 -6 -6 -6 -6 -6 -6 -6 -6 -7 -8
-4 -4 -4 -4 -4 -4 -4 -4 -4 -4 -4 -4 -5 -5 -5 -5 -5 -5 -6 -6 -6 -6 -6 -7 -7 -7 -7 -7 -7 -7 -6 -6 -7 -7 -6 -6 -7 -7
-4 -4 -4 -4 -4 -4 -4 -5 -5 -5 -5 -5 -5 -5 -5 -5 -5 -6 -6 -6 -6 -7 -7 -7 -7 -7 -7 -8 -8 -8 -8 -7 -7 -7 -7 -7 -7 -8
-4 -4 -4 -4 -4 -5 -5 -5 -5 -5 -5 -5 -5 -5 -6 -6 -6 -6 -6 -6 -7 -7 -7 -7 -7 -8 -8 -8 -8 -8 -8 -8 -8 -8 -8 -8 -8 -8
-5 -5 -4 -5 -5 -5 -5 -5 -5 -5 -6 -6 -6 -6 -6 -6 -6 -6 -6 -7 -7 -7 -7 -7 -7 -8 -8 -8 -9 -9 -9 -8 -8 -8 -9 -10 -9 -9
-5 -5 -5 -5 -5 -5 -6 -6 -6 -6 -6 -6 -6 -6 -6 -6 -6 -6 -7 -7 -7 -7 -7 -8 -8 -8 -9 -9 -9 -9 -9 -9 -9 -9 -10 -11 -11 -10
-6 -6 -6 -6 -6 -6 -6 -6 -6 -6 -6 -6 -6 -7 -7 -7 -7 -7 -7 -7 -8 -8 -8 -8 -8 -9 -10 -10 -9 -9 -9 -9 -10 -10 -11 -11 -11 -11
-6 -6 -6 -6 -7 -6 -6 -6 -6 -6 -7 -7 -7 -7 -7 -7 -7 -7 -7 -8 -8 -8 -8 -8 -9 -9 -9 -10 -10 -10 -10 -10 -11 -11 -11 -12 -12 -11
-7 -7 -7 -7 -7 -7 -7 -7 -7 -7 -7 -7 -7 -7 -7 -7 -7 -7 -8 -8 -8 -9 -9 -9 -8 -9 -10 -11 -11 -11 -10 -10 -11 -12 -12 -12 -12 -12
-7 -7 -7 -7 -7 -7 -7 -7 -7 -7 -7 -7 -7 -7 -7 -7 -7 -8 -8 -8 -8 -9 -9 -9 -9 -10 -11 -11 -12 -11 -11 -10 -11 -11 -12 -12 -12 -12
-7 -7 -7 -7 -7 -7 -7 -7 -7 -7 -7 -7 -8 -8 -8 -8 -8 -8 -8 -9 -9 -9 -10 -10 -10 -11 -11 -11 -12 -12 -12 -11 -12 -12 -11 -11 -11 -12
Wind_Speed
17 18 18 16 15 15 15 14 14 15 15 9 9 10 14 18 24 23 22 29 32 33 34 34 33 32 31 30 29 28 27 26 25 25 24 24 24 24
14 16 18 16 15 14 15 15 16 17 17 6 9 8 12 13 23 22 22 29 32 32 33 33 33 33 32 31 30 29 28 27 27 27 26 26 26 26
15 16 19 17 16 14 14 15 16 16 22 17 7 9 12 13 12 15 20 20 21 30 32 32 32 32 32 31 30 30 29 28 28 27 27 27 27 27
16 16 18 16 18 16 15 17 17 17 19 24 10 9 13 12 12 12 12 16 16 27 30 31 31 31 31 31 31 30 29 29 28 28 28 27 27 27
15 16 17 16 18 16 17 17 16 16 17 20 17 9 10 9 10 11 12 11 13 21 27 30 31 32 31 31 31 31 30 29 29 28 28 28 28 27
15 16 16 16 18 17 17 18 16 16 16 18 17 11 10 7 9 11 12 11 13 13 18 22 26 30 31 31 31 30 30 29 29 29 28 28 28 28
15 16 16 20 23 20 17 15 15 16 15 16 17 13 12 8 10 10 14 10 11 11 10 12 11 11 12 24 29 29 29 29 29 29 28 28 28 28
15 14 15 19 23 28 30 28 23 19 18 17 17 17 15 14 12 12 12 11 11 8 12 13 11 12 10 10 23 27 27 27 28 28 28 28 28 28
13 13 13 13 19 15 21 27 27 30 29 20 20 20 16 15 15 15 14 12 13 8 9 12 11 13 10 16 27 28 29 29 28 28 28 28 28 29
13 13 14 14 14 15 14 15 16 17 20 17 17 16 15 12 15 17 16 15 10 8 10 9 8 11 11 10 23 27 27 28 28 28 28 28 29 29
13 13 14 14 21 24 17 15 15 15 21 27 27 23 25 25 20 13 14 12 12 11 11 9 7 8 9 10 15 25 26 26 27 27 28 28 28 28
11 12 18 19 21 23 15 14 16 14 12 13 16 19 17 19 25 18 15 14 8 8 10 10 8 7 6 8 10 11 14 22 26 26 27 27 27 17
12 10 10 20 22 23 20 14 17 15 11 12 11 10 9 10 12 13 13 13 12 8 8 11 9 8 7 4 5 9 10 10 11 15 21 26 27 22
12 10 12 21 22 22 18 18 21 18 9 9 9 10 10 10 10 10 11 12 12 10 9 11 8 9 8 7 6 5 8 9 10 11 10 19 23 27
12 19 22 24 21 15 18 20 16 8 7 8 9 9 9 8 8 8 8 9 11 10 10 11 9 8 9 9 7 6 5 7 10 11 11 12 13 13
14 17 22 22 17 15 14 11 7 6 7 8 7 7 6 7 8 8 8 8 7 7 9 12 13 12 10 10 9 9 8 6 7 9 11 12 12 13
14 10 9 8 7 6 7 7 7 7 7 6 7 7 7 8 8 8 7 7 7 7 7 7 9 10 10 9 9 11 10 11 11 11 12 14 14 14
17 10 9 8 7 7 7 7 6 7 7 6 6 6 7 8 8 7 6 7 8 8 7 6 6 5 4 7 14 12 11 12 11 11 12 14 16 15
10 8 8 8 7 7 6 6 6 6 5 6 6 6 6 7 6 7 7 7 8 7 7 6 7 8 8 9 8 15 13 11 11 11 13 15 17 16
7 8 8 7 6 6 6 5 5 5 5 5 5 5 6 6 6 7 7 7 7 7 6 6 7 9 11 9 6 7 15 13 12 13 14 14 17 21
8 7 7 7 6 6 5 5 5 4 4 4 4 5 5 5 6 6 7 10 9 7 8 8 9 13 7 4 7 8 9 17 18 15 14 14 17 17
8 7 7 6 6 5 5 4 4 3 3 3 3 4 4 5 5 7 6 6 7 7 7 6 5 5 5 9 12 12 11 11 16 25 27 25 17 15
8 7 6 6 5 4 4 4 3 3 3 3 3 3 4 4 4 5 6 6 5 6 6 5 4 5 7 9 11 12 14 14 12 13 15 23 31 35
Wind_Direction
241 240 240 241 236 235 234 231 241 263 267 222 210 214 218 223 229 232 231 237 241 240 239 238 238 239 240 241 243 244 246 248 250 252 253 254 255 258
244 243 243 243 240 236 235 233 231 242 261 236 209 200 210 222 228 230 230 236 241 243 241 240 239 238 239 240 241 242 244 246 247 249 250 252 253 256
248 245 246 241 242 238 235 234 234 233 251 258 212 203 206 218 228 228 227 232 237 241 242 241 240 239 239 239 240 242 244 245 247 248 250 252 254 256
253 248 249 246 242 240 236 235 235 232 240 256 244 211 215 216 220 224 227 229 229 237 242 242 242 241 240 241 241 241 243 246 247 248 250 252 254 257
256 252 251 247 247 243 238 238 236 236 236 248 253 225 223 217 220 228 230 230 226 234 240 244 244 243 243 243 242 241 242 244 246 247 249 252 255 257
258 254 252 247 248 246 243 240 237 236 236 242 250 240 228 204 210 223 232 229 233 232 237 240 243 244 245 245 243 243 243 244 245 246 248 250 253 255
261 255 252 252 251 251 247 242 235 237 237 240 246 243 232 212 216 215 229 229 229 224 228 234 237 238 239 245 244 244 244 245 245 246 248 250 252 254
265 261 257 260 262 262 259 253 240 233 233 236 240 239 234 223 217 216 222 224 232 210 220 231 226 234 233 232 242 244 246 247 246 246 247 250 252 254
269 268 268 264 267 257 260 261 258 250 239 231 236 237 232 221 214 217 216 216 225 201 200 227 221 230 229 233 238 240 243 245 245 247 248 250 252 254
272 268 268 268 262 262 254 252 251 253 254 247 239 237 232 221 212 215 217 222 226 211 197 220 213 224 225 225 236 238 240 241 244 246 247 250 253 255
273 268 269 267 270 272 265 257 254 251 255 253 249 244 236 230 218 213 214 217 226 220 205 215 215 218 222 226 231 236 239 242 243 245 247 250 253 255
276 269 272 274 274 274 266 259 259 254 244 249 252 252 244 238 230 215 209 215 215 214 198 202 207 199 225 224 223 228 237 243 244 246 249 252 254 257
283 279 270 279 280 279 274 264 262 260 245 239 239 239 232 227 228 222 212 212 212 210 189 188 200 200 210 213 214 218 221 229 239 247 251 252 254 255
288 284 277 282 281 280 278 272 272 270 255 242 238 232 226 223 221 218 214 214 215 210 188 183 195 198 205 218 225 214 214 220 228 237 239 249 254 255
285 285 286 287 286 282 280 280 277 268 255 247 238 230 221 215 206 208 210 212 216 215 202 195 199 201 209 222 228 221 221 228 229 236 239 241 243 247
289 286 287 285 283 279 277 279 268 252 250 247 239 226 208 203 205 203 205 202 210 215 210 206 206 207 217 225 231 237 232 231 226 231 240 246 246 245
296 287 279 275 268 264 264 261 254 252 254 241 235 223 208 205 205 200 200 199 205 210 209 207 210 215 222 224 234 239 241 244 244 243 247 253 251 248
305 295 290 281 275 271 267 262 250 245 239 235 230 219 208 206 203 197 196 200 208 211 210 200 191 199 224 241 230 239 241 245 246 243 245 254 259 253
309 299 294 289 282 275 266 259 254 245 235 231 226 217 210 206 198 196 196 202 211 213 211 197 193 201 226 246 234 222 233 244 248 248 247 250 258 261
300 297 296 292 287 282 275 265 258 248 237 231 223 212 205 203 200 199 199 203 209 210 212 207 206 211 224 241 247 238 236 241 249 254 256 259 261 265
306 301 296 292 289 284 280 273 261 250 239 229 220 209 201 200 204 202 202 212 211 211 219 224 226 228 232 236 254 252 242 245 247 253 260 264 268 267
306 305 301 295 291 287 284 277 268 254 236 224 213 204 199 199 204 203 204 208 213 215 225 233 223 219 217 237 253 263 265 258 258 261 260 258 261 263
311 307 304 303 298 292 285 277 264 254 234 217 211 207 202 205 206 205 207 210 213 219 225 233 232 226 235 243 255 264 268 271 271 269 265 261 261 263
Height
1430 1428 1425 1423 1423 1421 1421 1421 1420 1412 1404 1405 1408 1410 1414 1416 1418 1419 1420 1422 1424 1426 1429 1432 1435 1438 1441 1444 1446 1449 1451 1453 1455 1457 1459 1461 1463 1465
1419 1416 1413 1412 1410 1409 1409 1408 1407 1404 1395 1389 1395 1398 1402 1403 1406 1407 1408 1410 1412 1414 1417 1420 1424 1427 1430 1433 1435 1438 1440 1442 1445 1447 1449 1452 1454 1455
1408 1405 1401 1400 1398 1397 1396 1395 1394 1393 1386 1378 1385 1387 1390 1392 1394 1396 1397 1398 1400 1403 1405 1408 1412 1415 1418 1421 1424 1427 1429 1432 1434 1437 1439 1442 1444 1446
1395 1393 1389 1388 1386 1384 1383 1382 1380 1380 1378 1370 1372 1375 1377 1380 1382 1384 1386 1387 1388 1391 1393 1396 1400 1403 1406 1409 1412 1415 1418 1421 1423 1426 1429 1431 1433 1436
1384 1381 1378 1377 1373 1372 1371 1369 1368 1368 1366 1363 1359 1364 1365 1367 1370 1372 1373 1375 1376 1378 1381 1384 1388 1391 1394 1398 1401 1404 1407 1409 1412 1415 1417 1420 1422 1425
1372 1369 1366 1364 1361 1360 1359 1357 1356 1356 1355 1353 1350 1352 1354 1355 1358 1358 1360 1362 1364 1367 1369 1372 1375 1379 1382 1386 1390 1393 1395 1398 1401 1404 1406 1409 1411 1413
1359 1357 1355 1353 1350 1348 1346 1344 1345 1344 1343 1342 1340 1341 1342 1344 1343 1345 1348 1350 1352 1355 1357 1360 1363 1365 1369 1373 1377 1381 1384 1387 1390 1393 1395 1398 1400 1402
1348 1345 1343 1341 1339 1337 1335 1334 1333 1332 1331 1331 1329 1328 1329 1332 1334 1336 1338 1340 1341 1343 1346 1347 1351 1353 1356 1361 1365 1369 1372 1375 1379 1381 1384 1386 1388 1390
1338 1335 1332 1329 1328 1325 1323 1322 1322 1321 1321 1320 1317 1316 1318 1321 1324 1326 1327 1328 1330 1333 1336 1337 1340 1341 1346 1349 1353 1357 1361 1364 1367 1370 1372 1375 1377 1379
1329 1326 1322 1319 1317 1314 1311 1309 1308 1308 1310 1309 1307 1306 1309 1311 1313 1315 1317 1319 1322 1325 1327 1328 1330 1333 1336 1339 1343 1346 1350 1353 1356 1358 1361 1363 1365 1367
1319 1317 1313 1309 1307 1305 1302 1299 1298 1297 1298 1298 1297 1298 1299 1301 1303 1306 1308 1311 1311 1313 1317 1319 1321 1325 1327 1329 1333 1337 1340 1342 1345 1347 1350 1352 1354 1355
1310 1307 1305 1302 1299 1296 1294 1291 1289 1287 1288 1287 1287 1288 1290 1292 1294 1295 1296 1299 1301 1304 1306 1310 1313 1317 1318 1319 1323 1326 1329 1332 1335 1337 1339 1341 1342 1343
1302 1298 1296 1293 1291 1288 1286 1283 1281 1280 1279 1278 1278 1278 1280 1281 1283 1286 1287 1289 1291 1294 1298 1302 1305 1308 1310 1311 1313 1316 1319 1321 1324 1325 1327 1328 1330 1330
1295 1291 1288 1285 1282 1280 1278 1275 1274 1273 1271 1270 1269 1269 1270 1272 1274 1277 1279 1281 1284 1287 1291 1294 1296 1299 1302 1303 1305 1306 1308 1310 1312 1313 1314 1315 1316 1316
1287 1283 1280 1277 1274 1271 1269 1267 1266 1264 1263 1262 1261 1261 1263 1264 1267 1269 1271 1274 1277 1280 1283 1285 1288 1291 1293 1294 1295 1297 1298 1299 1301 1301 1301 1301 1301 1302
1279 1274 1271 1268 1266 1263 1261 1259 1258 1257 1256 1255 1254 1255 1256 1258 1259 1262 1264 1267 1269 1272 1275 1278 1280 1283 1284 1285 1287 1287 1288 1289 1289 1290 1289 1288 1288 1287
1270 1266 1263 1260 1257 1255 1253 1251 1250 1249 1248 1248 1248 1248 1249 1251 1253 1255 1258 1260 1262 1264 1267 1270 1273 1274 1275 1277 1277 1277 1278 1278 1278 1279 1278 1274 1273 1273
1264 1259 1255 1252 1250 1247 1245 1244 1243 1242 1241 1241 1242 1242 1244 1245 1247 1249 1251 1253 1255 1257 1260 1262 1265 1266 1267 1266 1267 1267 1267 1267 1267 1267 1266 1262 1258 1258
1257 1253 1249 1246 1243 1241 1239 1238 1236 1236 1236 1236 1236 1237 1238 1240 1241 1243 1245 1247 1249 1251 1253 1255 1256 1257 1257 1256 1256 1258 1257 1256 1256 1254 1253 1250 1245 1242
1252 1248 1244 1241 1239 1236 1234 1233 1232 1231 1231 1231 1232 1232 1234 1235 1236 1238 1239 1241 1242 1244 1245 1246 1247 1248 1248 1248 1247 1246 1248 1246 1245 1242 1240 1237 1232 1230
1247 1244 1240 1237 1235 1232 1231 1229 1228 1227 1227 1227 1227 1228 1229 1230 1231 1232 1234 1235 1236 1237 1237 1238 1240 1241 1240 1240 1238 1234 1235 1236 1234 1232 1228 1225 1220 1216
1244 1240 1237 1234 1231 1229 1228 1226 1225 1224 1224 1223 1224 1224 1225 1226 1226 1227 1228 1229 1229 1230 1230 1231 1233 1233 1232 1230 1227 1225 1223 1223 1222 1220 1217 1214 1210 1201
1241 1238 1234 1232 1229 1227 1225 1223 1222 1221 1221 1220 1220 1221 1221 1221 1221 1222 1222 1223 1223 1223 1224 1224 1224 1224 1223 1221 1219 1216 1213 1211 1208 1204 1200 1199 1196 1191